This is the latest recevied weather packets stored in our database for station/object KD8JAM. If no packets are shown the sender has not sent any weather packets the latest 10 day(s).
| Time | Temp. | Humidity | Pressure | Rain* | Wind** | Luminosity | Snow |
|---|---|---|---|---|---|---|---|
| 1778028708 | 1.11° C | 82% | 1009.9 hPa | 0 mm | - | 7 W/m² | - |
| 1778028404 | 1.11° C | 81% | 1010.2 hPa | 0 mm | - | 7 W/m² | - |
| 1778028102 | 1.11° C | 80% | 1010.4 hPa | 0 mm | - | 9 W/m² | - |
| 1778027798 | 1.11° C | 80% | 1010.4 hPa | 0 mm | - | 11 W/m² | - |
| 1778027494 | 1.11° C | 79% | 1010.3 hPa | 0 mm | - | 13 W/m² | - |
| 1778027190 | 1.11° C | 79% | 1010.3 hPa | 0 mm | - | 16 W/m² | - |
| 1778026886 | 1.11° C | 79% | 1010.3 hPa | 0 mm | - | 18 W/m² | - |
| 1778026582 | 1.11° C | 79% | 1010.3 hPa | 0 mm | - | 19 W/m² | - |
| 1778026280 | 1.11° C | 80% | 1010.2 hPa | 0 mm | - | 24 W/m² | - |
| 1778025977 | 0.56° C | 82% | 1010.6 hPa | 0 mm | - | 28 W/m² | - |
| 1778025674 | 0.56° C | 83% | 1010.2 hPa | 0 mm | - | 33 W/m² | - |
| 1778025372 | 0.56° C | 84% | 1010 hPa | 0 mm | - | 38 W/m² | - |
| 1778025069 | 0.56° C | 83% | 1010.2 hPa | 0 mm | - | 44 W/m² | - |
| 1778024766 | 1.11° C | 82% | 1010 hPa | 0 mm | - | 48 W/m² | - |
| 1778024462 | 1.11° C | 82% | 1009.9 hPa | 0 mm | - | 55 W/m² | - |
| 1778024160 | 1.11° C | 82% | 1010.1 hPa | 0 mm | - | 64 W/m² | - |
| 1778023857 | 0.56° C | 81% | 1010 hPa | 0 mm | - | 72 W/m² | - |
| 1778023555 | 1.11° C | 80% | 1009.9 hPa | 0 mm | - | 80 W/m² | - |
| 1778023253 | 1.11° C | 80% | 1009.7 hPa | 0 mm | - | 85 W/m² | - |
| 1778022949 | 1.11° C | 80% | 1009.9 hPa | 0 mm | - | 93 W/m² | - |
| 1778022648 | 1.11° C | 80% | 1010.1 hPa | 0 mm | - | 99 W/m² | - |
| 1778022345 | 1.11° C | 80% | 1009.7 hPa | 0 mm | - | 103 W/m² | - |
| 1778022041 | 1.11° C | 80% | 1010 hPa | 0 mm | - | 115 W/m² | - |
| 1778021738 | 1.67° C | 79% | 1010.1 hPa | 0 mm | - | 125 W/m² | - |
| 1778021434 | 1.67° C | 79% | 1010 hPa | 0 mm | - | 133 W/m² | - |
* Rain latest hour (hover to see other rain measurements)
** Current wind speed in m/s (hover to see current wind gust speed)